Weather History for K96D - November, 2013

Change the Weather History Date:

Friday, November 22, 2013

  Actual Average (KGAF) Record (KGAF)
Temperature  
Mean Temperature 6 °F -  
Max Temperature 15 °F 27 °F 45 °F (1960)
Min Temperature -4 °F 15 °F -12 °F (1951)
Degree Days  
Heating Degree Days 60    
Moisture  
Dew Point 1 °F    
Average Humidity 75    
Maximum Humidity 93    
Minimum Humidity 57    
Precipitation  
Precipitation 0.00 in - - ()
Sea Level Pressure  
Sea Level Pressure 30.58 in    
Wind  
Wind Speed 11 mph (NW)    
Max Wind Speed 22 mph    
Max Gust Speed 28 mph    
Visibility 10 miles    
Events Snow    
Averages and records for this station are not official NWS values.
T = Trace of Precipitation, MM = Missing Value Source: NWS Daily Summary

Daily Weather History Graph

Daily Weather History Graph

Search for Another Location

Airport or City:

Trip Planner

Search our weather history database for the weather conditions in past years. The results will help you decide how hot, cold, wet, or windy it might be!

Date:

Astronomy

Nov. 22, 2013 Rise Set
Actual Time 7:52 AM CST 4:43 PM CST
Civil Twilight 7:16 AM CST 5:18 PM CST
Nautical Twilight 6:37 AM CST 5:57 PM CST
Astronomical Twilight 5:59 AM CST 6:35 PM CST
Moon 9:23 PM CST (11/22) 11:30 AM CST (11/22)
Length of Visible Light 10h 02m
Length of Day
8h 51m
Waning Gibbous, 78% of the Moon is Illuminated
Nov 22
Waning Gibbous
Nov 25
Last Quarter
Dec 2
New
Dec 9
First Quarter
Dec 17
Full

Hourly Weather History & Observations

Time (CST) Temp. Windchill Dew Point Humidity Pressure Visibility Wind Dir Wind Speed Gust Speed Precip Events Conditions
12:15 AM 12.2 °F 6.1 °F -0.4 °F 57% 30.40 in - South 3.5 mph - N/A   Partly Cloudy
12:35 AM 14.0 °F 2.9 °F 1.4 °F 57% 30.38 in - WSW 8.1 mph 19.6 mph N/A   Mostly Cloudy
12:55 AM 14.0 °F 2.9 °F 1.4 °F 57% 30.38 in - West 8.1 mph 16.1 mph N/A   Mostly Cloudy
1:15 AM 12.2 °F - 1.4 °F 62% 30.38 in 10.0 mi Calm Calm - N/A   Mostly Cloudy
1:35 AM 12.2 °F 4.3 °F 1.4 °F 62% 30.37 in 10.0 mi East 4.6 mph - N/A   Overcast
1:55 AM 14.0 °F 3.9 °F 3.2 °F 62% 30.38 in 10.0 mi West 6.9 mph - N/A   Overcast
2:15 AM 14.0 °F 1.2 °F 3.2 °F 62% 30.37 in 10.0 mi West 10.4 mph 17.3 mph N/A   Overcast
2:35 AM 14.0 °F 0.5 °F 5.0 °F 67% 30.36 in 10.0 mi West 11.5 mph 20.7 mph N/A   Overcast
2:55 AM 14.0 °F 0.5 °F 5.0 °F 67% 30.36 in 10.0 mi West 11.5 mph - N/A   Overcast
3:15 AM 14.0 °F 2.0 °F 5.0 °F 67% 30.38 in 10.0 mi West 9.2 mph 16.1 mph N/A   Overcast
3:35 AM 14.0 °F 2.9 °F 8.6 °F 79% 30.37 in 10.0 mi West 8.1 mph - N/A Snow Light Snow
3:55 AM 15.8 °F 4.2 °F 10.4 °F 79% 30.37 in 10.0 mi West 9.2 mph - N/A Snow Light Snow
4:15 AM 15.8 °F 5.1 °F 14.0 °F 93% 30.37 in 6.0 mi West 8.1 mph - N/A Snow Light Snow
4:35 AM 15.8 °F 3.4 °F 14.0 °F 93% 30.37 in 8.0 mi West 10.4 mph 16.1 mph N/A Snow Light Snow
4:55 AM 15.8 °F 4.2 °F 14.0 °F 93% 30.38 in 10.0 mi West 9.2 mph - N/A   Overcast
5:15 AM 15.8 °F 2.7 °F 14.0 °F 93% 30.38 in 10.0 mi WNW 11.5 mph 16.1 mph N/A   Overcast
5:35 AM 15.8 °F 3.4 °F 14.0 °F 93% 30.39 in 10.0 mi WNW 10.4 mph 16.1 mph N/A   Overcast
5:55 AM 15.8 °F 0.3 °F 14.0 °F 93% 30.40 in 10.0 mi NW 16.1 mph - N/A   Overcast
6:15 AM 15.8 °F -0.6 °F 12.2 °F 86% 30.41 in 10.0 mi NW 18.4 mph - N/A Snow Light Snow
6:35 AM 15.8 °F 5.1 °F 10.4 °F 79% 30.42 in 10.0 mi NW 8.1 mph - N/A   Mostly Cloudy
6:55 AM 15.8 °F 2.1 °F 10.4 °F 79% 30.43 in 10.0 mi NW 12.7 mph - N/A   Mostly Cloudy
7:15 AM 14.0 °F -3.4 °F 8.6 °F 79% 30.44 in 10.0 mi NW 19.6 mph 25.3 mph N/A   Mostly Cloudy
7:35 AM 12.2 °F -5.8 °F 8.6 °F 85% 30.45 in 8.0 mi North 19.6 mph 26.5 mph N/A Snow Light Snow
7:55 AM 10.4 °F -9.1 °F 5.0 °F 79% 30.47 in 10.0 mi NNW 21.9 mph 27.6 mph N/A   Mostly Cloudy
8:15 AM 10.4 °F -6.6 °F 5.0 °F 79% 30.48 in 10.0 mi NNW 16.1 mph 19.6 mph N/A   Mostly Cloudy
8:35 AM 10.4 °F -6.6 °F 3.2 °F 73% 30.49 in 10.0 mi NNW 16.1 mph - N/A   Overcast
8:55 AM 8.6 °F -8.3 °F 1.4 °F 73% 30.51 in 10.0 mi NNW 15.0 mph 23.0 mph N/A   Scattered Clouds
9:15 AM 8.6 °F -8.3 °F -0.4 °F 67% 30.52 in 10.0 mi NNW 15.0 mph 21.9 mph N/A   Clear
9:35 AM 8.6 °F -8.3 °F -0.4 °F 67% 30.53 in 10.0 mi NNW 15.0 mph - N/A   Clear
9:55 AM 6.8 °F -11.8 °F -0.4 °F 72% 30.54 in 10.0 mi NNW 17.3 mph - N/A   Clear
10:15 AM 8.6 °F -8.3 °F -0.4 °F 67% 30.55 in 10.0 mi NNW 15.0 mph - N/A   Clear
10:35 AM 8.6 °F -9.5 °F -0.4 °F 67% 30.56 in 10.0 mi NNW 17.3 mph 21.9 mph N/A   Clear
10:55 AM 8.6 °F -11.0 °F -0.4 °F 67% 30.56 in 10.0 mi NNW 20.7 mph - N/A   Mostly Cloudy
11:15 AM 8.6 °F -8.3 °F -0.4 °F 67% 30.57 in 10.0 mi NW 15.0 mph - N/A   Overcast
11:35 AM 8.6 °F -8.3 °F -0.4 °F 67% 30.58 in 10.0 mi NNW 15.0 mph - N/A   Overcast
11:55 AM 8.6 °F -10.5 °F -0.4 °F 67% 30.58 in 10.0 mi North 19.6 mph 24.2 mph N/A   Overcast
12:15 PM 6.8 °F -12.4 °F -0.4 °F 72% 30.59 in 10.0 mi NNW 18.4 mph 23.0 mph N/A   Overcast
12:35 PM 8.6 °F -8.3 °F -0.4 °F 67% 30.60 in 10.0 mi NNW 15.0 mph 24.2 mph N/A   Mostly Cloudy
12:55 PM 8.6 °F -8.9 °F 1.4 °F 73% 30.60 in 10.0 mi NNW 16.1 mph - N/A   Scattered Clouds
1:15 PM 8.6 °F -10.0 °F 1.4 °F 73% 30.61 in 10.0 mi NW 18.4 mph 21.9 mph N/A   Scattered Clouds
1:35 PM 8.6 °F -8.9 °F 1.4 °F 73% 30.62 in 10.0 mi NW 16.1 mph 25.3 mph N/A   Scattered Clouds
1:55 PM 8.6 °F -8.3 °F 1.4 °F 73% 30.62 in 10.0 mi NW 15.0 mph - N/A   Mostly Cloudy
2:15 PM 8.6 °F -7.0 °F 1.4 °F 73% 30.63 in 10.0 mi NNW 12.7 mph - N/A   Mostly Cloudy
2:35 PM 8.6 °F -7.0 °F 1.4 °F 73% 30.64 in 10.0 mi NNW 12.7 mph - N/A   Overcast
2:55 PM 8.6 °F -6.3 °F -0.4 °F 67% 30.65 in 10.0 mi NNW 11.5 mph - N/A   Overcast
3:15 PM 6.8 °F -10.0 °F -0.4 °F 72% 30.66 in 10.0 mi NW 13.8 mph - N/A   Overcast
3:35 PM 6.8 °F -10.7 °F -0.4 °F 72% 30.67 in 10.0 mi NNW 15.0 mph 20.7 mph N/A   Mostly Cloudy
3:55 PM 6.8 °F -7.8 °F -0.4 °F 72% 30.68 in 10.0 mi NNW 10.4 mph - N/A   Overcast
4:15 PM 5.0 °F -10.0 °F -0.4 °F 78% 30.68 in 10.0 mi NNW 10.4 mph - N/A   Mostly Cloudy
4:35 PM 5.0 °F -8.1 °F -2.2 °F 72% 30.69 in 10.0 mi North 8.1 mph - N/A   Overcast
4:55 PM 3.2 °F -10.3 °F -2.2 °F 78% 30.70 in 10.0 mi North 8.1 mph - N/A   Mostly Cloudy
5:15 PM 1.4 °F -14.5 °F -2.2 °F 85% 30.71 in 10.0 mi NNW 10.4 mph - N/A   Scattered Clouds
5:35 PM 1.4 °F -13.5 °F -2.2 °F 85% 30.73 in 10.0 mi NNW 9.2 mph - N/A   Scattered Clouds
5:55 PM -0.4 °F -14.7 °F -4.0 °F 85% 30.74 in 10.0 mi NNW 8.1 mph - N/A   Partly Cloudy
6:15 PM -0.4 °F -16.7 °F -4.0 °F 85% 30.75 in 10.0 mi NW 10.4 mph - N/A   Clear
6:35 PM -0.4 °F -18.4 °F -4.0 °F 85% 30.76 in 10.0 mi NNW 12.7 mph 18.4 mph N/A   Scattered Clouds
6:55 PM 1.4 °F -15.3 °F -4.0 °F 78% 30.76 in 10.0 mi NNW 11.5 mph - N/A   Mostly Cloudy
7:15 PM 1.4 °F -16.9 °F -4.0 °F 78% 30.77 in 10.0 mi NNW 13.8 mph 19.6 mph N/A   Scattered Clouds
7:35 PM 1.4 °F -18.2 °F -4.0 °F 78% 30.78 in 10.0 mi NW 16.1 mph 20.7 mph N/A   Scattered Clouds
7:55 PM 1.4 °F -18.8 °F -4.0 °F 78% 30.78 in 10.0 mi NNW 17.3 mph 21.9 mph N/A   Partly Cloudy
8:15 PM -0.4 °F -21.2 °F -4.0 °F 85% 30.78 in 10.0 mi NW 17.3 mph 23.0 mph N/A   Partly Cloudy
8:35 PM -0.4 °F -18.4 °F -7.6 °F 72% 30.79 in 10.0 mi NW 12.7 mph - N/A   Scattered Clouds
8:55 PM -0.4 °F -17.6 °F -7.6 °F 72% 30.80 in 10.0 mi NW 11.5 mph - N/A   Partly Cloudy
9:15 PM -0.4 °F -16.7 °F -7.6 °F 72% 30.81 in 10.0 mi NW 10.4 mph - N/A   Clear
9:35 PM -2.2 °F -18.0 °F -7.6 °F 78% 30.82 in 10.0 mi NW 9.2 mph - N/A   Scattered Clouds
9:55 PM -2.2 °F -18.0 °F -9.4 °F 71% 30.82 in 10.0 mi NW 9.2 mph - N/A   Partly Cloudy
10:15 PM -2.2 °F -18.0 °F -9.4 °F 71% 30.83 in 10.0 mi NW 9.2 mph - N/A   Clear
10:35 PM -2.2 °F -16.8 °F -9.4 °F 71% 30.83 in 10.0 mi NW 8.1 mph - N/A   Clear
10:55 PM -4.0 °F -17.8 °F -9.4 °F 78% 30.83 in 10.0 mi NW 6.9 mph - N/A   Clear
11:15 PM -4.0 °F -17.8 °F -9.4 °F 78% 30.83 in 10.0 mi NW 6.9 mph - N/A   Clear
11:35 PM -2.2 °F -14.2 °F -9.4 °F 71% 30.84 in 10.0 mi WNW 5.8 mph - N/A   Clear
11:55 PM -4.0 °F -16.3 °F -9.4 °F 78% 30.84 in 10.0 mi NW 5.8 mph - N/A   Clear